When you browse on this site, cookies collect data to enhance your experience and personalize the content and advertising you see.
Visit our Privacy Policy to learn more. By continuing to use the site, you agree to this use of cookies and data.
  • In Switzerland
  • List of Countries
  • For 7 days
  • Water Temperature
  • Satellite Maps
  • Weather Map
  • Weather Widgets
  • user-avatar
    Login

    Hourly Weather Kitzbuhel

    Today, 22 March, Friday

    Time Temperature Precipitation Wind Pressure Humidity
    00:00 +1°C° 0 mm 2 mps 685 mmHg 67%
    01:00 +2°C° 0 mm 2 mps 685 mmHg 59%
    02:00 +2°C° 0 mm 2 mps 685 mmHg 58%
    03:00 +1°C° 0 mm 2 mps 685 mmHg 58%
    04:00 +1°C° 0 mm 2 mps 684 mmHg 58%
    05:00 +1°C° 0 mm 2 mps 684 mmHg 58%
    06:00 +2°C° 0 mm 2 mps 684 mmHg 58%
    07:00 +3°C° 0 mm 2 mps 685 mmHg 57%
    08:00 +5°C° 0 mm 2 mps 685 mmHg 59%
    09:00 +9°C° 0 mm 1 mps 685 mmHg 61%
    10:00 +12°C° 0 mm 1 mps 685 mmHg 62%
    11:00 +13°C° 0 mm 1 mps 685 mmHg 61%
    12:00 +14°C° 0 mm 1 mps 685 mmHg 59%
    13:00 +15°C° 0 mm 1 mps 685 mmHg 58%
    14:00 +14°C° 0 mm 1 mps 685 mmHg 63%
    15:00 +14°C° 0 mm 1 mps 685 mmHg 67%
    16:00 +13°C° 0 mm 1 mps 684 mmHg 72%
    17:00 +11°C° 0 mm 1 mps 684 mmHg 77%
    18:00 +9°C° 0 mm 1 mps 683 mmHg 81%
    19:00 +7°C° 0 mm 1 mps 683 mmHg 86%
    20:00 +6°C° 0 mm 1 mps 683 mmHg 84%
    21:00 +5°C° 0 mm 2 mps 683 mmHg 82%
    22:00 +4°C° 0 mm 2 mps 684 mmHg 80%
    23:00 +4°C° 0 mm 2 mps 684 mmHg 79%

    Tomorrow, 23 March, Saturday

    Time Temperature Precipitation Wind Pressure Humidity
    00:00 +4°C° 0 mm 2 mps 684 mmHg 77%
    01:00 +4°C° 0 mm 2 mps 684 mmHg 76%
    02:00 +4°C° 0 mm 2 mps 683 mmHg 75%
    03:00 +3°C° 0 mm 2 mps 683 mmHg 75%
    04:00 +3°C° 0 mm 2 mps 683 mmHg 74%
    05:00 +3°C° 0 mm 2 mps 683 mmHg 74%
    06:00 +4°C° 0 mm 2 mps 683 mmHg 74%
    07:00 +5°C° 0 mm 1 mps 683 mmHg 74%
    08:00 +7°C° 0 mm 1 mps 684 mmHg 70%
    09:00 +9°C° 0 mm 0 mps 684 mmHg 66%
    10:00 +12°C° 0 mm 0 mps 684 mmHg 63%
    11:00 +13°C° 0 mm 0 mps 684 mmHg 61%
    12:00 +13°C° 0 mm 0 mps 684 mmHg 59%
    13:00 +15°C° 0 mm 1 mps 684 mmHg 57%
    14:00 +15°C° 0 mm 1 mps 683 mmHg 59%
    15:00 +14°C° 0 mm 1 mps 683 mmHg 62%
    16:00 +14°C° 0 mm 1 mps 683 mmHg 64%
    17:00 +12°C° 0 mm 1 mps 682 mmHg 72%
    18:00 +8°C° 0 mm 0 mps 682 mmHg 79%
    19:00 +6°C° 0 mm 0 mps 682 mmHg 87%
    20:00 +6°C° 0 mm 1 mps 682 mmHg 87%
    21:00 +6°C° 0 mm 1 mps 682 mmHg 88%
    22:00 +6°C° 0 mm 1 mps 683 mmHg 88%
    23:00 +6°C° 0 mm 1 mps 683 mmHg 87%

    Day after tomorrow, 24 March, Sunday

    Time Temperature Precipitation Wind Pressure Humidity
    00:00 +5°C° 0 mm 1 mps 682 mmHg 86%
    01:00 +5°C° 0 mm 1 mps 682 mmHg 86%
    02:00 +5°C° 0 mm 1 mps 682 mmHg 84%
    03:00 +4°C° 0 mm 2 mps 682 mmHg 83%
    04:00 +4°C° 0 mm 2 mps 682 mmHg 81%
    05:00 +5°C° 0 mm 1 mps 682 mmHg 79%
    06:00 +5°C° 0 mm 1 mps 682 mmHg 78%
    07:00 +5°C° 0 mm 1 mps 682 mmHg 76%
    08:00 +8°C° 0 mm 1 mps 682 mmHg 71%
    09:00 +10°C° 0 mm 1 mps 682 mmHg 66%
    10:00 +13°C° 0 mm 1 mps 683 mmHg 62%
    11:00 +14°C° 0 mm 1 mps 682 mmHg 61%
    12:00 +14°C° 0 mm 1 mps 682 mmHg 60%
    13:00 +15°C° 0 mm 1 mps 682 mmHg 59%
    14:00 +14°C° 0 mm 1 mps 681 mmHg 63%
    15:00 +14°C° 0 mm 1 mps 681 mmHg 67%
    16:00 +13°C° 0 mm 2 mps 681 mmHg 71%
    17:00 +11°C° 0 mm 1 mps 680 mmHg 78%
    18:00 +10°C° 0 mm 1 mps 680 mmHg 85%
    19:00 +8°C° 0 mm 1 mps 680 mmHg 93%
    20:00 +8°C° 0.1 mm 1 mps 681 mmHg 93%
    21:00 +8°C° 0.1 mm 1 mps 681 mmHg 94%
    22:00 +8°C° 0.1 mm 1 mps 681 mmHg 94%
    23:00 +7°C° 0.2 mm 1 mps 681 mmHg 95%

    25 March, Monday

    Time Temperature Precipitation Wind Pressure Humidity
    00:00 +7°C° 0.2 mm 1 mps 681 mmHg 97%
    01:00 +6°C° 0.2 mm 1 mps 681 mmHg 98%
    02:00 +6°C° 0.1 mm 1 mps 681 mmHg 98%
    03:00 +6°C° 0.1 mm 1 mps 681 mmHg 97%
    04:00 +6°C° 0.1 mm 1 mps 681 mmHg 97%
    05:00 +6°C° 0.2 mm 1 mps 681 mmHg 97%
    06:00 +6°C° 0.2 mm 1 mps 681 mmHg 97%
    07:00 +6°C° 0.2 mm 1 mps 681 mmHg 97%
    08:00 +6°C° 0.2 mm 1 mps 681 mmHg 96%
    09:00 +5°C° 0.2 mm 2 mps 680 mmHg 95%
    10:00 +4°C° 0.2 mm 2 mps 680 mmHg 93%
    11:00 +5°C° 0.1 mm 2 mps 680 mmHg 89%
    12:00 +5°C° 0.1 mm 2 mps 680 mmHg 85%
    13:00 +6°C° 0.1 mm 2 mps 679 mmHg 81%
    14:00 +6°C° 0.2 mm 2 mps 679 mmHg 83%
    15:00 +5°C° 0.2 mm 2 mps 679 mmHg 85%
    16:00 +5°C° 0.2 mm 2 mps 678 mmHg 87%
    17:00 +4°C° 0.4 mm 2 mps 679 mmHg 89%
    18:00 +3°C° 0.4 mm 2 mps 679 mmHg 90%
    19:00 +2°C° 0.4 mm 2 mps 679 mmHg 92%
    20:00 +2°C° 0.7 mm 2 mps 680 mmHg 93%
    21:00 +1°C° 0.7 mm 2 mps 680 mmHg 94%
    22:00 +1°C° 0.7 mm 2 mps 681 mmHg 95%
    23:00 -1°C° 1.1 mm 2 mps 681 mmHg 95%

    26 March, Tuesday

    Time Temperature Precipitation Wind Pressure Humidity
    00:00 -1°C° 1.1 mm 3 mps 682 mmHg 96%
    01:00 -1°C° 1.1 mm 3 mps 682 mmHg 96%
    02:00 -2°C° 0.2 mm 2 mps 682 mmHg 96%
    03:00 -3°C° 0.2 mm 2 mps 683 mmHg 96%
    04:00 -4°C° 0.2 mm 2 mps 683 mmHg 96%
    05:00 -2°C° 0.1 mm 1 mps 683 mmHg 94%
    06:00 -2°C° 0.1 mm 1 mps 684 mmHg 93%
    07:00 -1°C° 0.1 mm 1 mps 685 mmHg 91%
    08:00 0°C° 0.1 mm 1 mps 685 mmHg 85%
    09:00 +1°C° 0.1 mm 1 mps 685 mmHg 79%
    10:00 +2°C° 0.1 mm 1 mps 686 mmHg 73%
    11:00 +3°C° 0 mm 1 mps 685 mmHg 71%
    12:00 +3°C° 0 mm 1 mps 685 mmHg 70%
    13:00 +4°C° 0 mm 1 mps 685 mmHg 69%
    14:00 +4°C° 0 mm 1 mps 685 mmHg 69%
    15:00 +4°C° 0 mm 1 mps 685 mmHg 69%
    16:00 +4°C° 0 mm 1 mps 684 mmHg 69%
    17:00 +2°C° 0 mm 1 mps 684 mmHg 75%
    18:00 -1°C° 0 mm 0 mps 685 mmHg 82%
    19:00 -3°C° 0 mm 0 mps 685 mmHg 88%
    20:00 -3°C° 0 mm 0 mps 685 mmHg 87%
    21:00 -2°C° 0 mm 1 mps 686 mmHg 85%
    22:00 -2°C° 0 mm 1 mps 686 mmHg 84%
    23:00 -2°C° 0 mm 1 mps 686 mmHg 81%

    27 March, Wednesday

    Time Temperature Precipitation Wind Pressure Humidity
    00:00 -2°C° 0 mm 1 mps 686 mmHg 77%
    01:00 -2°C° 0 mm 1 mps 686 mmHg 74%
    02:00 -2°C° 0 mm 1 mps 685 mmHg 70%
    03:00 -2°C° 0 mm 1 mps 685 mmHg 67%
    04:00 -2°C° 0 mm 1 mps 685 mmHg 64%
    05:00 -2°C° 0 mm 1 mps 685 mmHg 62%
    06:00 -1°C° 0 mm 1 mps 686 mmHg 60%
    07:00 -1°C° 0 mm 1 mps 686 mmHg 58%
    08:00 +2°C° 0 mm 1 mps 686 mmHg 54%
    09:00 +5°C° 0 mm 1 mps 686 mmHg 49%
    10:00 +7°C° 0 mm 1 mps 687 mmHg 44%
    11:00 +8°C° 0 mm 1 mps 686 mmHg 44%
    12:00 +9°C° 0 mm 1 mps 686 mmHg 44%
    13:00 +9°C° 0 mm 1 mps 686 mmHg 43%
    14:00 +9°C° 0 mm 1 mps 686 mmHg 45%
    15:00 +9°C° 0 mm 1 mps 685 mmHg 47%
    16:00 +8°C° 0 mm 1 mps 685 mmHg 49%
    17:00 +6°C° 0 mm 1 mps 685 mmHg 57%
    18:00 +4°C° 0 mm 0 mps 685 mmHg 65%
    19:00 +2°C° 0 mm 0 mps 685 mmHg 73%
    20:00 +1°C° 0 mm 0 mps 686 mmHg 74%
    21:00 +2°C° 0 mm 1 mps 686 mmHg 74%
    22:00 +2°C° 0 mm 1 mps 686 mmHg 75%
    23:00 +1°C° 0 mm 1 mps 686 mmHg 74%
    Show more